Total_Precipitation_Accumulation
1.98 1.94 1.96 1.87 1.82 1.83 1.93 2.12 2.34 2.13 1.59 1.20 1.10 1.04 1.04 1.05 1.11 1.04 0.93 1.07 1.07 1.08 1.15 1.19 1.17 1.18 1.21 1.28 1.40 1.51 1.59 1.69 1.78 1.85 1.91 1.98 2.15 2.40
1.82 1.79 1.75 1.73 1.76 1.78 1.83 1.91 2.09 2.19 1.85 1.28 1.08 1.04 1.08 1.08 1.14 1.02 0.95 1.09 1.04 1.02 1.02 1.07 1.09 1.09 1.09 1.12 1.18 1.25 1.31 1.36 1.46 1.62 1.78 1.90 2.00 2.14
1.73 1.70 1.61 1.54 1.61 1.63 1.63 1.68 1.77 1.90 1.84 1.34 1.12 1.08 1.10 1.05 1.04 0.97 0.89 0.87 0.84 0.92 0.91 0.93 0.99 1.01 1.02 1.05 1.11 1.18 1.21 1.23 1.31 1.44 1.59 1.73 1.85 1.90
1.54 1.58 1.54 1.48 1.47 1.50 1.53 1.50 1.48 1.51 1.60 1.44 1.13 1.01 0.98 0.91 0.91 0.91 0.87 0.82 0.75 0.85 0.87 0.88 0.96 1.00 0.98 0.98 1.00 1.07 1.14 1.18 1.21 1.26 1.36 1.45 1.59 1.74
1.38 1.44 1.47 1.50 1.49 1.45 1.44 1.42 1.40 1.40 1.49 1.52 1.24 1.02 0.94 0.90 0.89 0.86 0.84 0.83 0.77 0.83 0.86 0.86 0.88 0.93 0.95 0.96 0.97 0.98 1.01 1.07 1.14 1.20 1.27 1.35 1.44 1.56
1.33 1.39 1.41 1.39 1.35 1.30 1.33 1.30 1.33 1.39 1.42 1.50 1.41 1.20 1.03 0.91 0.95 0.96 0.94 0.85 0.82 0.81 0.91 0.90 0.91 0.92 0.93 0.92 0.88 0.86 0.88 0.96 1.10 1.26 1.38 1.45 1.46 1.49
1.39 1.36 1.37 1.42 1.36 1.29 1.28 1.26 1.29 1.38 1.48 1.55 1.47 1.27 1.10 0.99 0.92 0.86 0.93 0.92 0.89 0.82 0.86 0.85 0.87 0.89 0.91 0.97 0.99 0.98 1.01 1.10 1.23 1.39 1.50 1.57 1.59 1.61
1.35 1.26 1.24 1.33 1.32 1.33 1.32 1.29 1.34 1.44 1.54 1.60 1.51 1.31 1.03 0.92 0.93 1.05 1.17 1.31 1.23 0.87 0.88 0.98 1.03 1.11 1.07 1.04 1.16 1.18 1.20 1.26 1.34 1.42 1.49 1.57 1.60 1.61
1.22 1.16 1.11 1.09 1.17 1.10 1.16 1.23 1.25 1.35 1.43 1.44 1.39 1.14 1.00 0.94 1.12 1.30 1.32 1.35 1.20 0.99 1.13 1.28 1.18 1.14 1.06 1.10 1.27 1.21 1.18 1.21 1.26 1.32 1.36 1.41 1.46 1.50
1.10 1.03 1.02 1.00 1.02 1.11 1.18 1.24 1.15 1.08 1.08 1.04 1.03 0.98 0.98 1.05 1.27 1.52 1.63 1.68 1.45 1.24 1.23 1.35 1.15 1.03 0.97 1.02 1.19 1.16 1.10 1.13 1.19 1.26 1.31 1.35 1.38 1.39
1.10 1.05 1.04 0.98 1.09 1.26 1.31 1.32 1.16 1.00 1.00 1.06 1.12 1.12 1.17 1.23 1.32 1.59 1.85 2.00 1.76 1.28 1.08 1.15 1.08 1.03 1.00 0.99 1.07 1.19 1.14 1.12 1.17 1.22 1.23 1.26 1.33 1.39
1.12 1.09 1.17 1.12 1.22 1.32 1.25 1.26 1.19 0.99 0.93 0.93 0.97 0.99 0.93 0.97 1.16 1.31 1.74 2.21 1.95 1.50 1.04 1.10 1.16 1.30 1.51 1.09 0.96 1.04 1.10 1.12 1.13 1.15 1.19 1.24 1.29 1.28
1.19 1.11 1.09 1.29 1.37 1.39 1.27 1.08 1.10 1.17 1.06 0.96 0.93 0.93 0.92 0.92 0.95 1.01 1.29 1.99 2.35 1.84 1.13 1.47 1.71 1.46 1.64 1.27 0.99 1.00 1.06 1.14 1.20 1.21 1.25 1.29 1.31 1.37
1.12 1.03 1.07 1.30 1.31 1.27 1.18 1.18 1.28 1.21 1.03 1.05 1.04 1.00 0.97 0.96 0.97 1.01 1.08 1.28 1.63 1.79 1.42 1.71 2.16 1.76 1.86 1.55 1.13 1.05 1.11 1.26 1.41 1.40 1.34 1.45 1.43 1.44
1.11 1.18 1.22 1.24 1.19 1.14 1.18 1.19 1.14 1.06 1.10 1.20 1.15 1.03 0.98 1.01 1.06 1.12 1.15 1.17 1.27 1.32 1.32 1.40 1.71 1.75 1.94 1.88 1.43 1.19 1.29 1.37 1.52 1.71 1.68 1.56 1.43 1.41
1.18 1.21 1.20 1.16 1.14 1.15 1.21 1.15 1.03 1.06 1.23 1.29 1.19 1.09 1.08 1.14 1.17 1.23 1.38 1.42 1.52 1.45 1.32 1.25 1.33 1.63 1.76 1.46 1.52 1.47 1.44 1.72 1.75 1.93 1.92 1.69 1.48 1.34
1.19 1.09 1.04 1.05 1.08 1.06 1.04 1.05 1.05 1.09 1.18 1.18 1.23 1.23 1.22 1.30 1.37 1.44 1.61 1.70 1.74 1.52 1.33 1.18 1.15 1.24 1.40 1.48 1.52 1.39 1.45 1.68 1.87 1.99 2.02 1.89 1.67 1.47
1.16 1.06 1.01 0.98 0.99 0.99 0.98 0.98 1.01 1.05 1.14 1.28 1.34 1.36 1.41 1.48 1.57 1.61 1.74 1.86 1.78 1.49 1.27 1.12 1.12 1.24 1.29 1.26 1.31 1.42 1.50 1.69 1.83 1.86 1.77 1.83 1.78 1.53
0.97 0.93 0.93 0.92 0.92 0.93 0.97 1.01 1.03 1.03 1.18 1.39 1.51 1.56 1.64 1.69 1.74 1.79 1.80 1.78 1.63 1.40 1.24 1.13 1.24 1.63 1.70 1.26 0.99 1.19 1.64 1.78 1.71 1.70 1.58 1.53 1.63 1.46
0.87 0.86 0.86 0.86 0.91 0.95 1.00 1.09 1.15 1.17 1.28 1.43 1.54 1.60 1.71 1.84 1.88 1.79 1.70 1.64 1.54 1.34 1.15 1.02 1.11 1.56 2.07 1.82 1.47 1.26 1.38 1.68 1.81 1.77 1.48 1.33 1.38 1.37
0.84 0.83 0.83 0.87 0.93 1.00 1.06 1.15 1.26 1.37 1.45 1.61 1.66 1.67 1.74 1.93 1.90 1.69 1.54 1.45 1.39 1.27 1.12 0.91 0.88 1.14 1.54 1.79 1.68 1.35 1.37 1.50 1.65 1.91 1.81 1.71 1.54 1.36
0.88 0.88 0.87 0.90 0.97 1.04 1.10 1.21 1.35 1.41 1.50 1.60 1.65 1.68 1.74 1.85 1.80 1.55 1.36 1.32 1.24 1.16 1.08 0.93 0.86 1.01 1.35 1.75 1.57 1.24 1.22 1.26 1.26 1.28 1.49 1.85 2.28 2.27
0.95 0.98 0.97 0.98 1.02 1.09 1.17 1.23 1.36 1.43 1.51 1.63 1.66 1.62 1.61 1.56 1.39 1.32 1.27 1.25 1.26 1.19 1.12 1.08 0.99 1.03 1.17 1.31 1.41 1.28 1.15 1.09 1.06 1.19 1.43 1.39 1.43 1.61